Weather History for Lemoore NAS, CA

Change the Weather History Date:

Sunday, December 15, 2013

  Actual Average Record
Temperature  
Mean Temperature 46 °F -  
Max Temperature 64 °F 53 °F 64 °F (2013)
Min Temperature 28 °F 36 °F 28 °F (1999)
Degree Days  
Heating Degree Days 19    
Moisture  
Dew Point 26 °F    
Average Humidity 48    
Maximum Humidity 64    
Minimum Humidity 31    
Precipitation  
Precipitation 0.00 in - - ()
Sea Level Pressure  
Sea Level Pressure 30.34 in    
Wind  
Wind Speed 4 mph (WNW)    
Max Wind Speed 9 mph    
Max Gust Speed -    
Visibility 5 miles    
Events      
Averages and records for this station are not official NWS values.
T = Trace of Precipitation, MM = Missing Value Source: NWS Daily Summary

Daily Weather History Graph

Daily Weather History Graph

Search for Another Location

Airport:

Trip Planner

Search our weather history database for the weather conditions in past years. The results will help you decide how hot, cold, wet, or windy it might be!

Date:

Astronomy

Dec. 15, 2013 Rise Set
Actual Time 7:04 AM PST 4:46 PM PST
Civil Twilight 6:35 AM PST 5:14 PM PST
Nautical Twilight 6:03 AM PST 5:47 PM PST
Astronomical Twilight 5:31 AM PST 6:18 PM PST
Moon 3:52 PM PST (12/15) 5:27 AM PST (12/15)
Length of Visible Light 10h 39m
Length of Day
9h 41m
Waxing Gibbous, 98% of the Moon is Illuminated
Dec 15
Waxing Gibbous
Dec 17
Full
Dec 25
Last Quarter
Jan 1
New
Jan 7
First Quarter

Hourly Weather History & Observations

Time (PST) Temp. Windchill Dew Point Humidity Pressure Visibility Wind Dir Wind Speed Gust Speed Precip Events Conditions
12:56 AM 36.0 °F 32.1 °F 21.9 °F 57% 30.38 in 7.0 mi West 4.6 mph - N/A   Clear
1:56 AM 34.0 °F 29.8 °F 17.1 °F 50% 30.38 in 8.0 mi West 4.6 mph - N/A   Clear
2:56 AM 33.1 °F 25.5 °F 17.1 °F 52% 30.38 in 8.0 mi West 9.2 mph - N/A   Clear
3:56 AM 32.0 °F 27.5 °F 17.1 °F 54% 30.37 in 8.0 mi WNW 4.6 mph - N/A   Clear
4:56 AM 30.0 °F 24.1 °F 18.0 °F 61% 30.37 in 6.0 mi NW 5.8 mph - N/A   Haze
5:56 AM 30.0 °F 26.5 °F 19.0 °F 64% 30.38 in 6.0 mi NW 3.5 mph - N/A   Haze
6:56 AM 28.9 °F - 17.1 °F 61% 30.38 in 6.0 mi Calm Calm - N/A   Haze
7:56 AM 32.0 °F - 19.9 °F 61% 30.40 in 4.0 mi Calm Calm - N/A   Haze
8:56 AM 41.0 °F - 28.0 °F 60% 30.41 in 4.0 mi Calm Calm - N/A   Haze
9:56 AM 50.0 °F - 30.9 °F 48% 30.41 in 4.0 mi NW 4.6 mph - N/A   Haze
10:56 AM 55.0 °F - 34.0 °F 45% 30.39 in 4.0 mi NW 5.8 mph - N/A   Haze
11:56 AM 57.9 °F - 35.1 °F 42% 30.35 in 3.0 mi WNW 3.5 mph - N/A   Haze
12:56 PM 61.0 °F - 34.0 °F 36% 30.32 in 3.0 mi Variable 3.5 mph - N/A   Haze
1:56 PM 63.0 °F - 33.1 °F 33% 30.29 in 4.0 mi Calm Calm - N/A   Haze
2:56 PM 64.0 °F - 33.1 °F 31% 30.28 in 3.0 mi NNW 4.6 mph - N/A   Haze
3:00 PM 64.0 °F - 33.1 °F 31% 30.27 in 3.0 mi Calm Calm - N/A   Haze
3:56 PM 61.0 °F - 32.0 °F 34% 30.27 in 3.0 mi NNW 3.5 mph - N/A   Haze
4:56 PM 55.9 °F - 32.0 °F 40% 30.28 in 4.0 mi North 4.6 mph - N/A   Haze
5:56 PM 51.1 °F - 30.0 °F 44% 30.28 in 4.0 mi NNW 5.8 mph - N/A   Haze
6:56 PM 48.9 °F - 28.0 °F 44% 30.28 in 4.0 mi North 5.8 mph - N/A   Haze
7:56 PM 46.0 °F 43.9 °F 24.1 °F 42% 30.30 in 4.0 mi West 4.6 mph - N/A   Haze
8:56 PM 43.0 °F 41.3 °F 21.9 °F 43% 30.30 in 5.0 mi WSW 3.5 mph - N/A   Haze
9:56 PM 43.0 °F 38.8 °F 26.1 °F 51% 30.31 in 5.0 mi WSW 6.9 mph - N/A   Haze
10:56 PM 41.0 °F 37.1 °F 23.0 °F 49% 30.30 in 5.0 mi West 5.8 mph - N/A   Haze
11:56 PM 41.0 °F 38.0 °F 27.0 °F 57% 30.30 in 5.0 mi WNW 4.6 mph - N/A   Haze